Regional Weather Roundup
Issued by NWS

Home | Current Version | Previous Version | Graphics & Text | Print | Product List | Glossary On
Versions: 1 2 3 4 5 6 7 8 9 10 11 12 13 14 15 16 17 18 19 20 21 22 23 24 25 26 27 28 29 30 31 32 33 34 35 36 37 38 39 40 41 42 43 44 45 46 47 48 49 50
000
ASUS43 KDMX 211006
RWRIA

WEATHER ROUNDUP FOR IOWA
NATIONAL WEATHER SERVICE DES MOINES IA
500 AM CDT SAT OCT 21 2017

NOTE: "FAIR" INDICATES FEW OR NO CLOUDS BELOW 12,000 FEET WITH NO
SIGNIFICANT WEATHER AND/OR OBSTRUCTIONS TO VISIBILITY.

* - THESE STATIONS ARE NOT NWS STATIONS...THUS NOT UNDER NWS
QUALITY CONTROL.  THEY ALSO DO NOT REPORT WEATHER SUCH
AS PRECIPITATION OR FOG.

IAZ001>003-012>014-020>022-031>034-043>046-211100-
   NORTHWEST IOWA

CITY           SKY/WX    TMP DP  RH WIND       PRES   REMARKS
CHEROKEE *     CLOUDY    65  60  86 S20G28    29.61F
DENISON *      CLOUDY    63  59  88 SE21G30   29.65S
LE MARS *      CLOUDY    66  59  77 S20G32    29.54F
ORANGE CITY *  CLOUDY    66  61  82 S17       29.56F
SHELDON *      CLOUDY    64  57  77 S20G32    29.57S
SIOUX CITY     CLOUDY    66  60  81 SE15      29.55F
SPENCER        LGT RAIN  63  59  87 S25G32    29.62S
STORM LAKE *   CLOUDY    63  59  88 S17G32    29.64S
$$

IAZ055>058-069>071-079>083-090>094-211100-
   SOUTHWEST IOWA

CITY           SKY/WX    TMP DP  RH WIND       PRES   REMARKS
ATLANTIC *     CLOUDY    64  61  88 S17G24    29.68F
AUDUBON *      CLOUDY    61  57  88 S10       29.70F
CLARINDA *       N/A     66  61  82 S21G26    29.73F
COUNCIL BLFS * CLOUDY    63  63 100 S17       29.63F FOG
CRESTON *      CLOUDY    63  57  82 S20G28    29.76F
HARLAN  *      CLOUDY    64  63  94 S18G24    29.68F
LAMONI         LGT RAIN  63  57  81 S15G29    29.80F
RED OAK *      CLOUDY    66  61  82 S20G28    29.68S
SHENANDOAH *   CLOUDY    66  61  82 S20G29    29.68F
$$

IAZ047>049-059>061-072>074-084-211100-
   CENTRAL IOWA

CITY           SKY/WX    TMP DP  RH WIND       PRES   REMARKS
AMES           LGT RAIN  63  58  83 S15G23    29.77S
ANKENY *       DRIZZLE   63  57  82 S12       29.79R
BOONE *        CLOUDY    61  57  88 S12G20    29.74S
CHARITON *     CLOUDY    64  57  77 S18       29.80F
DES MOINES     LGT RAIN  64  58  80 S16       29.77R
GRINNELL*      CLOUDY    61  54  78 SE14G21   29.83F
KNOXVILLE *    CLOUDY    64  55  72 S15G26    29.79F
MARSHALLTOWN   PTCLDY    61  54  77 SE16      29.78F
NEWTON *       CLOUDY    63  55  77 S16       29.80F
PELLA *        CLOUDY    64  55  71 S12G18    29.83S
PERRY *        LGT RAIN  61  60  96 S9        29.73F
$$

IAZ004>006-015-016-023>025-035-036-211100-
   NORTH CENTRAL IOWA

CITY           SKY/WX    TMP DP  RH WIND       PRES   REMARKS
ALGONA *       CLOUDY    61  59  94 S20G25    29.70R FOG
CLARION *      CLOUDY    63  57  82 S22       29.73R
ESTHERVILLE    CLOUDY    59  57  93 S21G30    29.64F
FORT DODGE *   LGT RAIN  61  58  90 S15       29.71S
MASON CITY     MOCLDY    59  52  77 SE17G25   29.75F
FOREST CITY *  CLOUDY    61  54  77 S16G25    29.72F
WEBSTER CITY * LGT RAIN  61  57  88 S12G20    29.72R
IOWA FALLS *   MOCLDY    60  54  79 SE15G23   29.77F
$$

IAZ007>011-017>019-026>030-037>042-050>054-066-211100-
   NORTHEAST IOWA

CITY           SKY/WX    TMP DP  RH WIND       PRES   REMARKS
CEDAR RAPIDS   CLOUDY    62  52  69 S14       29.87F
CHARLES CITY * CLOUDY    63  54  72 S15G26    29.80S
CLINTON *      CLOUDY    62  52  69 S12       29.96S
DECORAH *      MOCLDY    61  52  72 S13G20    29.82F
DUBUQUE        MOCLDY    61  50  67 S15       29.92F
MONTICELLO *   CLOUDY    61  52  72 SE13      29.89F
OELWEIN *      CLOUDY    63  54  72 S18G28    29.85R
WATERLOO       MOCLDY    61  52  72 S15       29.81S
$$

IAZ064-065-067-068-078-211100-
   EAST CENTRAL IOWA

CITY           SKY/WX    TMP DP  RH WIND       PRES   REMARKS
DAVENPORT      MOCLDY    63  50  62 S14G23    29.96F
IOWA CITY      CLOUDY    63  52  67 S12       29.91S
MUSCATINE *    CLOUDY    63  52  67 S13       29.92S
QUAD CITIES    CLOUDY    64  49  57 S17       29.94F
$$

IAZ062-063-075>077-085>089-095>099-211100-
   SOUTHEAST IOWA

CITY           SKY/WX    TMP DP  RH WIND       PRES   REMARKS
BURLINGTON     CLOUDY    62  52  69 S14       29.94S
FAIRFIELD *    MOCLDY    63  52  67 S21G29    29.88S
FORT MADISON * CLOUDY    61  54  77 SE12      29.95S
KEOKUK *       CLOUDY    63  52  67 SE10G17   29.93F
OSKALOOSA *      N/A     60  54  80 S17       29.85S
CENTERVILLE *    N/A     64  55  72 SE18G25   29.87S
OTTUMWA        PTCLDY    62  54  74 S14G25    29.86S
WASHINGTON *   CLOUDY    64  54  68 S18G24    29.90S
$$

ABBREVIATIONS USED IN REMARKS
   TC - TEMPERATURES IN CELSIUS
  WCI - WIND CHILL INDEX
   HX - HEAT INDEX
  VSB - VISIBILITY
$$





USA.gov is the U.S. government's official web portal to all federal, state and local government web resources and services.